Weather History for KCFE - February, 2013

Change the Weather History Date:

Wednesday, February 13, 2013

  Actual Average (KSTC) Record (KSTC)
Temperature  
Mean Temperature 26 °F 16 °F  
Max Temperature 35 °F 26 °F 47 °F (2011)
Min Temperature 18 °F 6 °F -26 °F (1936)
Degree Days  
Heating Degree Days 38 49  
Month to date heating degree days 657  
Since 1 July heating degree days 5759  
Cooling Degree Days 0 0  
Month to date cooling degree days 0  
Year to date cooling degree days 0  
Moisture  
Dew Point 24 °F    
Average Humidity 88    
Maximum Humidity 100    
Minimum Humidity 70    
Precipitation  
Precipitation 0.13 in 0.02 in 0.70 in (1897)
Month to date precipitation 0.23  
Year to date precipitation 0.88  
Snow  
Snow 0.00 in 0.30 in 4.60 in (2013)
Month to date snowfall 3.0  
Since 1 July snowfall 30.2  
Snow Depth -    
Sea Level Pressure  
Sea Level Pressure 29.67 in    
Wind  
Wind Speed 2 mph (SSW)    
Max Wind Speed 8 mph    
Max Gust Speed -    
Visibility 8 miles    
Events Rain , Snow    
T = Trace of Precipitation, MM = Missing Value Source: NWS Daily Summary

Daily Weather History Graph

Daily Weather History Graph

Search for Another Location

Airport or City:

Trip Planner

Search our weather history database for the weather conditions in past years. The results will help you decide how hot, cold, wet, or windy it might be!

Date:

Astronomy

Feb. 13, 2013 Rise Set
Actual Time 7:19 AM CST 5:40 PM CST
Civil Twilight 6:48 AM CST 6:11 PM CST
Nautical Twilight 6:14 AM CST 6:45 PM CST
Astronomical Twilight 5:40 AM CST 7:19 PM CST
Moon 8:36 AM CST (2/13) 9:58 PM CST (2/13)
Length of Visible Light 11h 22m
Length of Day
10h 21m
Waxing Crescent, 14% of the Moon is Illuminated
Feb 13
Waxing Crescent
Feb 17
First Quarter
Feb 25
Full
Mar 4
Last Quarter
Mar 11
New

Hourly Weather History & Observations

Time (CST) Temp. Windchill Dew Point Humidity Pressure Visibility Wind Dir Wind Speed Gust Speed Precip Events Conditions
12:15 AM 20.8 °F - 17.6 °F 87% 29.80 in 10.0 mi Calm Calm - N/A   Overcast
12:34 AM 20.5 °F 14.0 °F 17.6 °F 89% 29.80 in 10.0 mi WSW 4.6 mph - N/A   Mostly Cloudy
12:55 AM 21.0 °F 16.2 °F 17.6 °F 87% 29.79 in 10.0 mi SW 3.5 mph - N/A   Mostly Cloudy
1:14 AM 21.2 °F - 18.1 °F 88% 29.78 in 10.0 mi Calm Calm - N/A   Overcast
1:34 AM 20.8 °F - 17.6 °F 87% 29.78 in 10.0 mi Calm Calm - N/A   Overcast
1:55 AM 21.2 °F - 18.3 °F 89% 29.78 in 10.0 mi Calm Calm - N/A   Overcast
2:14 AM 21.0 °F - 18.1 °F 89% 29.78 in 10.0 mi Calm Calm - N/A   Overcast
2:34 AM 21.2 °F - 18.3 °F 89% 29.77 in 10.0 mi Calm Calm - N/A   Overcast
2:55 AM 20.7 °F 15.8 °F 17.8 °F 89% 29.77 in 10.0 mi SW 3.5 mph - N/A   Overcast
3:14 AM 20.1 °F 13.6 °F 17.4 °F 89% 29.77 in 10.0 mi SSW 4.6 mph - N/A   Scattered Clouds
3:34 AM 20.1 °F 13.6 °F 17.6 °F 90% 29.76 in 10.0 mi SW 4.6 mph - N/A   Clear
3:55 AM 18.9 °F - 16.3 °F 90% 29.76 in 10.0 mi Calm Calm - N/A   Clear
4:15 AM 19.2 °F - 17.2 °F 92% 29.76 in 10.0 mi Calm Calm - N/A   Scattered Clouds
4:34 AM 18.7 °F 11.9 °F 16.9 °F 93% 29.76 in 10.0 mi WSW 4.6 mph - N/A   Mostly Cloudy
4:55 AM 19.6 °F 14.5 °F 17.4 °F 91% 29.74 in 10.0 mi SW 3.5 mph - N/A   Mostly Cloudy
5:15 AM 19.0 °F 13.9 °F 16.9 °F 91% 29.74 in 10.0 mi SSW 3.5 mph - N/A   Mostly Cloudy
5:34 AM 18.9 °F 13.7 °F 17.1 °F 93% 29.74 in 10.0 mi South 3.5 mph - N/A   Overcast
5:55 AM 19.4 °F 14.3 °F 17.4 °F 92% 29.74 in 10.0 mi SSW 3.5 mph - N/A   Overcast
6:15 AM 18.5 °F - 16.7 °F 93% 29.73 in 10.0 mi Calm Calm - N/A   Mostly Cloudy
6:34 AM 18.3 °F - 16.3 °F 92% 29.73 in 10.0 mi Calm Calm - N/A   Overcast
6:55 AM 18.3 °F - 16.5 °F 93% 29.73 in 10.0 mi Calm Calm - N/A   Overcast
7:15 AM 18.5 °F - 16.5 °F 92% 29.72 in 10.0 mi Calm Calm - N/A   Overcast
7:34 AM 18.7 °F - 16.7 °F 92% 29.72 in 10.0 mi Calm Calm - N/A   Overcast
7:55 AM 19.2 °F - 17.2 °F 92% 29.72 in 10.0 mi Calm Calm - N/A   Overcast
8:15 AM 20.1 °F 15.2 °F 18.0 °F 91% 29.71 in 10.0 mi South 3.5 mph - N/A   Overcast
8:34 AM 20.8 °F 16.0 °F 18.1 °F 89% 29.71 in 10.0 mi South 3.5 mph - N/A   Mostly Cloudy
8:55 AM 21.2 °F 16.4 °F 18.1 °F 88% 29.71 in 10.0 mi South 3.5 mph - N/A   Mostly Cloudy
9:14 AM 21.7 °F 17.0 °F 18.5 °F 87% 29.70 in 10.0 mi South 3.5 mph - N/A   Mostly Cloudy
9:34 AM 23.7 °F 16.6 °F 19.4 °F 84% 29.70 in 10.0 mi South 5.8 mph - N/A   Mostly Cloudy
9:55 AM 24.8 °F 19.1 °F 20.5 °F 84% 29.71 in 10.0 mi SSW 4.6 mph - N/A   Overcast
10:14 AM 25.7 °F 18.0 °F 20.8 °F 82% 29.70 in 10.0 mi SSW 6.9 mph - N/A   Scattered Clouds
10:35 AM 27.1 °F 18.9 °F 21.6 °F 80% 29.70 in 10.0 mi SSW 8.1 mph - N/A   Clear
10:55 AM 28.2 °F 20.2 °F 22.1 °F 78% 29.70 in 10.0 mi SSW 8.1 mph - N/A   Clear
11:14 AM 29.3 °F 22.3 °F 22.8 °F 77% 29.69 in 10.0 mi SSW 6.9 mph - N/A   Clear
11:35 AM 32.0 °F 27.5 °F 24.6 °F 74% 29.69 in 10.0 mi South 4.6 mph - N/A   Clear
11:55 AM 32.9 °F 27.5 °F 24.8 °F 72% 29.68 in 10.0 mi South 5.8 mph - N/A   Clear
12:14 PM 33.3 °F 27.1 °F 25.2 °F 72% 29.66 in 10.0 mi South 6.9 mph - N/A   Clear
12:35 PM 33.8 °F 27.7 °F 25.5 °F 72% 29.66 in 10.0 mi SSW 6.9 mph - N/A   Mostly Cloudy
12:55 PM 34.0 °F 28.0 °F 25.2 °F 70% 29.65 in 10.0 mi SSW 6.9 mph - N/A   Scattered Clouds
1:14 PM 34.0 °F 28.0 °F 25.5 °F 71% 29.64 in 10.0 mi SSW 6.9 mph - N/A   Scattered Clouds
1:35 PM 34.5 °F 28.6 °F 26.1 °F 71% 29.64 in 10.0 mi SSW 6.9 mph - N/A   Scattered Clouds
1:55 PM 34.2 °F 30.0 °F 26.2 °F 73% 29.63 in 10.0 mi SSW 4.6 mph - N/A   Scattered Clouds
2:14 PM 35.1 °F 31.0 °F 26.4 °F 71% 29.63 in 10.0 mi South 4.6 mph - N/A   Mostly Cloudy
2:35 PM 34.7 °F 30.6 °F 26.8 °F 73% 29.63 in 10.0 mi SSW 4.6 mph - N/A   Overcast
2:55 PM 34.3 °F 27.7 °F 27.3 °F 76% 29.63 in 10.0 mi SSW 8.1 mph - N/A   Mostly Cloudy
3:14 PM 34.0 °F 28.8 °F 27.1 °F 76% 29.63 in 10.0 mi SSW 5.8 mph - N/A   Mostly Cloudy
3:55 PM 34.7 °F - 28.0 °F 77% 29.63 in 10.0 mi Calm Calm - N/A   Overcast
4:14 PM 34.2 °F 30.0 °F 28.4 °F 79% 29.62 in 7.0 mi South 4.6 mph - N/A Snow Light Snow
4:35 PM 34.0 °F - 28.6 °F 81% 29.62 in 10.0 mi Calm Calm - N/A   Overcast
4:55 PM 34.0 °F - 28.8 °F 81% 29.61 in 10.0 mi Calm Calm - N/A   Overcast
5:14 PM 33.8 °F - 29.3 °F 84% 29.61 in 3.0 mi Calm Calm - N/A Rain Light Rain
5:35 PM 32.9 °F - 30.0 °F 89% 29.60 in 1.2 mi Calm Calm - N/A   Overcast
5:55 PM 32.0 °F - 30.7 °F 95% 29.60 in 1.8 mi Calm Calm - N/A   Overcast
6:14 PM 32.0 °F - 31.1 °F 96% 29.60 in 1.5 mi Calm Calm - N/A Snow Light Snow
6:35 PM 32.0 °F - 31.5 °F 98% 29.60 in 1.8 mi Calm Calm - 0.01 in Snow Light Snow
6:55 PM 32.0 °F - 31.3 °F 97% 29.60 in 2.0 mi Calm Calm - 0.01 in   Overcast
7:14 PM 32.0 °F - 31.5 °F 98% 29.60 in 1.5 mi Calm Calm - 0.01 in Rain Heavy Rain
7:35 PM 32.0 °F - 32.0 °F 100% 29.59 in 1.5 mi Calm Calm - 0.02 in Rain Light Rain
7:54 PM 32.0 °F - 32.0 °F 100% 29.58 in 1.8 mi Calm Calm - 0.02 in Snow Light Snow
8:14 PM 32.0 °F - 32.0 °F 100% 29.58 in 2.0 mi Calm Calm - 0.01 in Snow Light Snow
8:35 PM 32.0 °F - 32.0 °F 100% 29.57 in 1.5 mi Calm Calm - 0.02 in Rain Heavy Rain
8:54 PM 32.0 °F - 32.0 °F 100% 29.56 in 1.2 mi Calm Calm - 0.03 in   Overcast
9:14 PM 32.0 °F - 32.0 °F 100% 29.56 in 1.0 mi Calm Calm - 0.01 in Snow Light Snow
9:35 PM 32.0 °F - 31.8 °F 99% 29.56 in 1.0 mi Calm Calm - 0.02 in Snow Light Snow
9:54 PM 32.0 °F - 31.8 °F 99% 29.56 in 1.0 mi Calm Calm - 0.03 in Snow Snow
10:14 PM 32.0 °F - 31.8 °F 99% 29.57 in 1.0 mi Calm Calm - 0.01 in Snow Light Snow
10:35 PM 32.0 °F 28.7 °F 31.8 °F 99% 29.57 in 1.2 mi North 3.5 mph - 0.02 in Snow Light Snow
10:54 PM 32.0 °F 27.5 °F 31.6 °F 99% 29.58 in 2.0 mi North 4.6 mph - 0.03 in Snow Light Snow
11:14 PM 31.8 °F 27.3 °F 31.5 °F 99% 29.58 in 2.0 mi North 4.6 mph - N/A   Overcast
11:35 PM 31.6 °F 26.0 °F 31.3 °F 99% 29.59 in 1.8 mi North 5.8 mph - 0.01 in Snow Light Snow
11:54 PM 31.6 °F 27.0 °F 31.1 °F 98% 29.60 in 1.8 mi North 4.6 mph - 0.01 in   Overcast